This is the latest recevied weather packets stored in our database for station/object PD0SBH-13. If no packets are shown the sender has not sent any weather packets the latest 10 day(s).
| Time | Temp. | Humidity | Pressure | Rain* | Wind** | Luminosity | Snow |
|---|---|---|---|---|---|---|---|
| 1777804519 | 18.89° C | 99% | 1008 hPa | 0 mm | - | - | - |
| 1777803926 | 18.89° C | 99% | 1008 hPa | 0 mm | - | - | - |
| 1777803321 | 19.44° C | 99% | 1008.2 hPa | 0 mm | - | - | - |
| 1777802726 | 19.44° C | 99% | 1008.1 hPa | 0 mm | - | - | - |
| 1777802119 | 19.44° C | 99% | 1007.8 hPa | 0 mm | - | - | - |
| 1777801523 | 19.44° C | 99% | 1007.8 hPa | 0 mm | - | - | - |
| 1777800918 | 19.44° C | 99% | 1007.8 hPa | 0 mm | - | - | - |
| 1777800322 | 18.89° C | 99% | 1007.7 hPa | 0 mm | - | - | - |
| 1777799718 | 18.89° C | 99% | 1007.5 hPa | 0 mm | - | - | - |
| 1777799123 | 18.33° C | 99% | - | 0 mm | - | - | - |
| 1777798518 | 18.33° C | 99% | - | 0 mm | - | - | - |
| 1777797923 | 18.33° C | 99% | - | 0 mm | - | - | - |
| 1777797318 | 18.33° C | 99% | - | 0 mm | - | - | - |
| 1777796722 | 18.33° C | 99% | - | 0 mm | - | - | - |
| 1777796118 | 17.78° C | 99% | 1007.1 hPa | 0 mm | - | - | - |
| 1777795522 | 17.78° C | 99% | 1007.1 hPa | 0 mm | - | - | - |
| 1777794916 | 17.78° C | 99% | 1007.2 hPa | 0 mm | - | - | - |
| 1777794321 | 17.78° C | 99% | 1007.1 hPa | 0 mm | - | - | - |
| 1777793726 | 17.22° C | 99% | 1007 hPa | 0 mm | - | - | - |
| 1777793120 | 17.22° C | 99% | 1007.1 hPa | 0 mm | - | - | - |
| 1777792523 | 16.67° C | 99% | 1007.2 hPa | 0 mm | - | - | - |
| 1777791919 | 16.67° C | 99% | 1007.2 hPa | 0 mm | - | - | - |
| 1777791322 | 16.11° C | 99% | 1007.2 hPa | 0 mm | - | - | - |
| 1777790717 | 16.11° C | 99% | 1007.2 hPa | 0 mm | - | - | - |
| 1777790122 | 15.56° C | 99% | 1007.2 hPa | 0 mm | - | - | - |
* Rain latest hour (hover to see other rain measurements)
** Current wind speed in m/s (hover to see current wind gust speed)